FW9515 Weather Reports


time (UTC)temp
C
wind
direction
speed
KPH
gust
KPH
rain 1hr
cm
rain 24hr
cm
rain mn
cm
humidity
%
barometer
mb
20260506121705 10 342 3.2 8.0 0.03 1.73 0.30 95 1006.6
20260506120702 11 290 3.2 11.3 0.00 1.70 0.28 95 1006.3
20260506120201 11 347 1.6 11.3 0.00 1.70 0.28 95 1006.3
20260506115704 11 296 1.6 6.4 0.03 1.70 0.28 95 1006.3
20260506115203 11 275 1.6 11.3 0.03 1.70 0.28 95 1006.2
20260506114151 11 239 3.2 11.3 0.05 1.70 0.28 95 1006.1
20260506113646 11 325 1.6 11.3 0.05 1.70 0.28 95 1006.1
20260506113140 11 5 1.6 8.0 0.05 1.70 0.28 96 1006.1
20260506112635 11 328 1.6 6.4 0.08 1.70 0.28 96 1006.1
20260506111631 11 313 1.6 6.4 0.13 1.70 0.28 96 1006.1
20260506111132 11 47 1.6 9.7 0.13 1.70 0.28 96 1006.1
20260506110900 11 313 3.2 9.7 0.13 1.70 0.28 96 1006.0
20260506110146 11 294 3.2 9.7 0.13 1.70 0.28 96 1006.0
20260506105632 11 53 1.6 4.8 0.10 1.68 0.25 96 1006.0
20260506105132 11 31 1.6 4.8 0.10 1.68 0.25 96 1006.1
20260506104634 11 40 1.6 3.2 0.10 1.68 0.25 96 1006.0
20260506104132 11 324 1.6 4.8 0.08 1.65 0.23 95 1006.0
20260506103635 11 287 1.6 4.8 0.08 1.65 0.23 96 1006.0
20260506103132 11 301 1.6 3.2 0.05 1.65 0.23 96 1006.1
20260506102631 11 49 1.6 3.2 0.05 1.63 0.20 96 1006.0
20260506102131 11 13 0.0 3.2 0.03 1.60 0.18 96 1005.9
20260506101901 11 329 0.0 3.2 0.00 1.57 0.15 96 1006.0
20260506101130 11 61 0.0 3.2 0.00 1.57 0.15 96 1005.9
20260506100630 11 321 0.0 3.2 0.00 1.57 0.15 96 1005.9
20260506100130 11 315 1.6 4.8 0.00 1.57 0.15 96 1005.9
20260506095625 11 32 1.6 6.4 0.03 1.57 0.15 96 1005.9
20260506095125 11 298 1.6 9.7 0.03 1.57 0.15 96 1005.7
20260506094625 11 339 1.6 9.7 0.03 1.57 0.15 96 1005.8
20260506094125 11 5 1.6 6.4 0.03 1.57 0.15 96 1005.7
20260506093625 10 336 1.6 6.4 0.03 1.57 0.15 96 1005.7
20260506093356 10 331 1.6 4.8 0.03 1.57 0.15 96 1005.7
20260506092623 10 355 0.0 3.2 0.03 1.57 0.15 96 1005.6
20260506092125 10 355 1.6 3.2 0.03 1.57 0.15 96 1005.7
20260506091623 10 348 1.6 3.2 0.03 1.57 0.15 95 1005.7
20260506091121 10 348 1.6 3.2 0.03 1.57 0.15 96 1005.7
20260506090619 11 350 0.0 6.4 0.03 1.57 0.15 96 1005.7
20260506090125 11 339 0.0 6.4 0.03 1.57 0.15 96 1005.6
20260506085615 11 340 0.0 3.2 0.00 1.55 0.15 96 1005.6
20260506085343 11 345 0.0 3.2 0.00 1.55 0.15 96 1005.5
20260506084612 11 12 1.6 3.2 0.00 1.55 0.15 96 1005.6
20260506084109 10 351 0.0 3.2 0.00 1.55 0.15 96 1005.4
20260506083607 10 355 0.0 3.2 0.00 1.55 0.15 96 1005.4
20260506083339 10 340 0.0 3.2 0.00 1.55 0.15 96 1005.4
20260506082612 10 340 1.6 3.2 0.00 1.55 0.15 96 1005.4
20260506082111 10 340 0.0 3.2 0.00 1.55 0.15 96 1005.4
20260506081606 10 288 0.0 3.2 0.00 1.55 0.15 96 1005.5
20260506081105 10 351 0.0 3.2 0.00 1.55 0.15 96 1005.4
20260506080604 10 351 0.0 3.2 0.00 1.55 0.15 96 1005.4
20260506080104 10 338 1.6 4.8 0.00 1.55 0.15 96 1005.4
20260506073058 10 331 0.0 1.6 0.00 1.55 0.15 96 1005.3
20260506072555 10 327 0.0 1.6 0.00 1.55 0.15 96 1005.2
20260506072053 10 305 0.0 1.6 0.00 1.55 0.15 96 1005.2
20260506071821 10 305 0.0 3.2 0.00 1.55 0.15 96 1005.2
20260506071050 10 305 0.0 3.2 0.00 1.55 0.15 96 1005.2
20260506070548 10 305 0.0 1.6 0.00 1.55 0.15 96 1005.2
20260506062040 10 305 0.0 1.6 0.05 1.55 0.15 96 1005.0
20260506061812 10 305 0.0 1.6 0.08 1.55 0.15 96 1005.0
20260506061040 10 304 0.0 0.0 0.10 1.55 0.15 97 1004.9
20260506060540 10 304 0.0 0.0 0.13 1.55 0.15 97 1005.0
20260506051041 10 286 1.6 4.8 0.03 1.45 0.05 96 1005.1
20260506050808 10 306 1.6 4.8 0.00 1.45 0.03 96 1005.2
20260506045040 10 313 0.0 3.2 0.00 1.45 0.03 96 1005.3
20260506044541 10 313 0.0 3.2 0.00 1.45 0.03 96 1005.2
20260506044312 10 309 0.0 3.2 0.00 1.45 0.03 96 1005.1
20260506043537 10 334 0.0 1.6 0.00 1.45 0.03 96 1005.2
20260506043036 10 335 0.0 3.2 0.00 1.45 0.03 96 1005.2
20260506042803 10 338 0.0 4.8 0.00 1.45 0.03 96 1005.3
20260506042037 10 336 1.6 4.8 0.00 1.45 0.03 96 1005.3
20260506041534 10 286 1.6 4.8 0.00 1.45 0.03 96 1005.3
20260506041035 10 294 1.6 3.2 0.00 1.45 0.03 96 1005.3
20260506040534 10 296 0.0 3.2 0.00 1.45 0.03 96 1005.2
20260506040033 10 302 0.0 1.6 0.00 1.45 0.03 96 1005.2
20260506035533 10 302 0.0 1.6 0.00 1.45 0.03 96 1005.3
20260506035032 10 302 0.0 0.0 0.00 1.45 0.03 96 1005.2
20260506034532 10 302 0.0 1.6 0.00 1.45 0.03 96 1005.2
20260506034031 10 302 0.0 1.6 0.00 1.45 0.03 96 1005.2
20260506033531 10 301 0.0 1.6 0.00 1.45 0.03 96 1005.3
20260506033254 10 301 0.0 3.2 0.00 1.45 0.03 96 1005.3
20260506032752 10 301 0.0 3.2 0.00 1.45 0.03 96 1005.4
20260506032300 10 304 1.6 6.4 0.00 1.45 0.03 96 1005.3
20260506031750 10 301 1.6 6.4 0.00 1.45 0.03 96 1005.3
20260506031016 10 288 1.6 4.8 0.00 1.45 0.03 96 1005.3
20260506030516 10 299 1.6 4.8 0.00 1.45 0.03 96 1005.4
20260506030015 10 340 0.0 4.8 0.00 1.45 0.03 96 1005.4
20260506025511 10 276 0.0 4.8 0.00 1.45 0.03 96 1005.5
20260506025010 10 304 0.0 3.2 0.00 1.45 0.03 96 1005.5
20260506024510 10 292 0.0 3.2 0.00 1.45 0.03 96 1005.6
20260506024007 10 339 0.0 3.2 0.00 1.45 0.03 96 1005.6
20260506023504 10 269 1.6 6.4 0.00 1.45 0.03 96 1005.5
20260506023009 10 295 1.6 6.4 0.00 1.45 0.03 96 1005.6
20260506022726 10 296 1.6 6.4 0.00 1.45 0.03 96 1005.6
20260506022002 10 294 1.6 6.4 0.00 1.45 0.03 96 1005.6
20260506021501 10 286 3.2 6.4 0.00 1.45 0.03 96 1005.7
20260506021012 10 277 3.2 6.4 0.00 1.45 0.03 96 1005.8
20260506020006 10 295 1.6 3.2 0.00 1.45 0.03 96 1005.8
20260506015501 10 317 0.0 3.2 0.00 1.45 0.03 96 1005.8
20260506015227 10 305 1.6 6.4 0.00 1.45 0.03 96 1005.8
20260506014500 10 309 1.6 6.4 0.00 1.45 0.03 96 1005.9
20260506014002 10 335 1.6 6.4 0.00 1.45 0.03 96 1006.0
20260506013501 10 330 1.6 6.4 0.00 1.45 0.03 96 1006.0
20260506013226 10 323 1.6 3.2 0.00 1.45 0.03 96 1006.0
20260506012450 10 298 1.6 4.8 0.00 1.45 0.03 96 1006.0
20260506011945 10 279 3.2 6.4 0.00 1.45 0.03 96 1006.0
20260506011439 10 301 3.2 6.4 0.00 1.45 0.03 95 1006.1
20260506010932 10 279 1.6 6.4 0.00 1.45 0.03 95 1006.0
20260506010430 10 298 1.6 4.8 0.00 1.45 0.03 95 1006.0
20260506005933 10 283 1.6 4.8 0.00 1.45 0.03 95 1006.0
20260506005430 10 34 1.6 4.8 0.00 1.45 0.03 95 1006.0
20260506004930 10 158 1.6 9.7 0.00 1.45 0.03 95 1006.0
20260506004430 10 306 1.6 9.7 0.00 1.45 0.03 95 1006.1
20260506003934 10 311 1.6 9.7 0.00 1.45 0.03 95 1006.0
20260506003658 10 350 1.6 6.4 0.00 1.45 0.03 95 1005.9
20260506002929 10 331 0.0 6.4 0.00 1.45 0.03 95 1006.0
20260506001929 10 296 3.2 9.7 0.00 1.45 0.03 95 1006.1
20260506001431 10 288 3.2 9.7 0.00 1.45 0.03 95 1006.2
20260506000929 10 292 3.2 9.7 0.00 1.45 0.03 95 1006.2
20260506000654 10 299 3.2 8.0 0.00 1.45 0.03 95 1006.3
20260505235928 10 315 3.2 8.0 0.00 1.45 0.03 95 1006.3
20260505235700 10 293 3.2 8.0 0.00 1.45 0.03 95 1006.3
20260505234929 10 302 3.2 9.7 0.00 1.45 0.03 95 1006.5
20260505234431 10 321 3.2 9.7 0.00 1.45 0.03 95 1006.5
20260505233925 10 284 3.2 9.7 0.00 1.45 0.03 95 1006.5
20260505233418 10 5 3.2 9.7 0.00 1.45 0.03 95 1006.7
20260505232914 10 278 3.2 6.4 0.00 1.45 0.03 95 1006.7
20260505232414 10 288 1.6 6.4 0.00 1.45 0.03 95 1006.7
20260505231915 11 299 1.6 9.7 0.00 1.45 0.03 95 1006.7
20260505231640 11 305 1.6 9.7 0.00 1.45 0.03 95 1006.6
20260505230916 11 289 1.6 8.0 0.03 1.45 0.03 95 1006.5
20260505230414 11 303 1.6 4.8 0.03 1.45 0.03 95 1006.6
20260505225912 11 327 3.2 11.3 0.03 1.45 0.03 95 1006.7
20260505225412 11 348 1.6 11.3 0.03 1.45 0.03 95 1006.6
20260505224913 11 281 1.6 9.7 0.03 1.45 0.03 95 1006.7
20260505224641 11 286 1.6 4.8 0.03 1.45 0.03 95 1006.9
20260505223908 11 292 1.6 6.4 0.03 1.45 0.03 95 1006.7
20260505223408 11 285 3.2 8.0 0.03 1.45 0.03 95 1006.8
20260505222909 11 297 3.2 9.7 0.03 1.45 0.03 95 1006.9
20260505222408 11 285 3.2 9.7 0.03 1.45 0.03 94 1006.8
20260505221909 11 270 3.2 9.7 0.03 1.45 0.03 94 1006.8
20260505221406 11 322 4.8 11.3 0.05 1.45 0.03 94 1006.8
20260505220906 11 275 4.8 11.3 0.03 1.42 0.00 94 1006.8
20260505220405 11 300 3.2 8.0 0.03 1.42 0.00 94 1006.8
20260505215902 11 276 1.6 8.0 0.03 1.42 1.42 95 1006.8
20260505215356 11 286 1.6 8.0 0.05 1.42 1.42 94 1006.8
20260505214850 11 310 3.2 9.7 0.05 1.42 1.42 94 1006.8
20260505214351 11 277 3.2 9.7 0.05 1.42 1.42 94 1006.9
20260505214209 11 275 3.2 9.7 0.08 1.42 1.42 94 1006.9
20260505213344 11 284 1.6 8.0 0.10 1.42 1.42 94 1006.9
20260505212844 11 299 1.6 8.0 0.15 1.42 1.42 94 1006.9
20260505212344 11 290 1.6 4.8 0.15 1.42 1.42 94 1006.9
20260505211844 11 273 1.6 6.4 0.20 1.42 1.40 94 1007.0
20260505211343 11 273 3.2 6.4 0.20 1.40 1.40 94 1007.0
20260505210844 11 312 1.6 6.4 0.20 1.40 1.40 94 1007.0
20260505210344 11 288 1.6 8.0 0.23 1.40 1.40 94 1007.1
20260505210116 11 286 3.2 8.0 0.25 1.40 1.40 94 1007.1
20260505205344 11 286 3.2 6.4 0.25 1.37 1.37 94 1007.1
20260505204844 11 293 3.2 8.0 0.25 1.37 1.37 94 1007.2
20260505203844 11 279 1.6 11.3 0.25 1.35 1.35 94 1007.1
20260505203339 12 268 1.6 11.3 0.23 1.32 1.30 94 1007.1
20260505202840 12 244 3.2 11.3 0.23 1.27 1.27 93 1007.1
20260505202618 12 292 3.2 11.3 0.23 1.27 1.24 94 1007.1
20260505201839 12 279 1.6 6.4 0.23 1.22 1.22 94 1007.1
20260505201339 12 279 1.6 4.8 0.23 1.19 1.19 94 1007.1
20260505200838 12 276 1.6 4.8 0.23 1.19 1.17 94 1007.0
20260505200611 12 290 1.6 4.8 0.23 1.17 1.17 94 1006.9
20260505195841 12 270 1.6 6.4 0.23 1.14 1.14 94 1006.9
20260505195609 12 270 1.6 6.4 0.23 1.12 1.12 94 1006.9
20260505194839 12 293 3.2 6.4 0.20 1.09 1.09 94 1006.8
20260505194338 12 273 3.2 6.4 0.23 1.09 1.09 94 1006.9
20260505193835 12 296 1.6 6.4 0.23 1.09 1.09 94 1006.7
20260505193331 12 288 1.6 6.4 0.23 1.09 1.07 94 1006.7
20260505192832 12 320 1.6 4.8 0.23 1.07 1.07 94 1006.7
20260505192331 12 299 0.0 4.8 0.20 1.04 1.02 94 1006.7
20260505191831 12 291 0.0 4.8 0.15 0.99 0.99 94 1006.7
20260505191333 12 236 0.0 3.2 0.15 0.99 0.99 94 1006.7
20260505190832 12 236 1.6 6.4 0.15 0.97 0.97 93 1006.6
20260505190331 12 293 1.6 6.4 0.13 0.94 0.94 93 1006.7
20260505185832 12 292 1.6 6.4 0.13 0.91 0.91 93 1006.7
20260505185329 12 248 1.6 6.4 0.10 0.89 0.89 93 1006.6
20260505184829 12 242 0.0 4.8 0.10 0.89 0.89 93 1006.7
20260505184329 12 263 1.6 6.4 0.10 0.89 0.89 93 1006.8
20260505184059 13 241 1.6 6.4 0.08 0.86 0.86 93 1006.8
20260505183558 13 275 0.0 4.8 0.08 0.86 0.86 93 1006.7
20260505182830 13 200 0.0 3.2 0.08 0.84 0.84 93 1006.8
20260505182329 13 200 1.6 4.8 0.08 0.84 0.84 93 1006.7
20260505181829 13 203 1.6 4.8 0.08 0.84 0.81 93 1006.8
20260505181329 13 198 1.6 4.8 0.08 0.81 0.81 93 1006.8
20260505180829 13 186 1.6 3.2 0.08 0.81 0.81 93 1006.7
20260505180602 13 188 1.6 4.8 0.10 0.81 0.81 93 1006.8
20260505175830 13 188 1.6 4.8 0.08 0.79 0.79 93 1006.7
20260505175606 13 188 0.0 4.8 0.08 0.79 0.79 93 1006.8
20260505175101 13 188 0.0 4.8 0.10 0.79 0.79 93 1006.9
20260505174331 13 207 0.0 1.6 0.08 0.79 0.79 93 1006.9
20260505173830 13 207 0.0 1.6 0.10 0.79 0.79 93 1007.0
20260505173328 13 207 0.0 1.6 0.10 0.79 0.79 93 1007.0
20260505172830 13 207 0.0 3.2 0.10 0.76 0.76 93 1007.0
20260505172329 13 207 0.0 3.2 0.10 0.76 0.76 93 1006.9
20260505171829 13 199 0.0 3.2 0.13 0.76 0.74 93 1007.1
20260505171559 13 199 0.0 3.2 0.15 0.74 0.74 93 1007.2
20260505170829 13 199 0.0 1.6 0.20 0.74 0.74 93 1007.1
20260505170603 13 199 0.0 1.6 0.23 0.71 0.71 93 1007.1
20260505165833 13 199 0.0 1.6 0.30 0.71 0.71 93 1007.1
20260505165329 13 199 0.0 1.6 0.33 0.71 0.71 93 1007.2
20260505165101 13 236 0.0 1.6 0.36 0.71 0.71 93 1007.2
20260505164331 13 234 0.0 3.2 0.41 0.71 0.71 93 1007.1
20260505163829 13 205 0.0 3.2 0.48 0.69 0.69 93 1007.3
20260505163328 13 324 0.0 1.6 0.56 0.69 0.69 93 1007.3
20260505162833 13 324 0.0 1.6 0.53 0.66 0.66 93 1007.3
20260505162330 13 324 0.0 3.2 0.56 0.66 0.64 92 1007.3
20260505161829 13 33 0.0 3.2 0.53 0.64 0.61 92 1007.4
20260505161331 13 41 0.0 1.6 0.51 0.61 0.58 92 1007.3
20260505161052 13 41 0.0 1.6 0.43 0.53 0.53 91 1007.4
20260505160325 13 41 0.0 3.2 0.43 0.51 0.48 91 1007.4
20260505152312 14 307 0.0 3.2 0.05 0.13 0.10 91 1007.4
20260505151813 14 307 0.0 3.2 0.05 0.13 0.10 91 1007.4
20260505151313 14 307 0.0 3.2 0.05 0.13 0.10 91 1007.4
20260505150813 14 307 0.0 3.2 0.08 0.13 0.10 91 1007.4
20260505150312 14 5 0.0 3.2 0.05 0.10 0.08 91 1007.5
20260505140307 15 305 1.6 3.2 0.03 0.08 0.03 82 1007.6
20260505130302 16 42 1.6 4.8 0.00 0.05 0.00 77 1007.9
20260505124801 16 69 3.2 6.4 0.00 0.05 0.00 77 1008.1
20260505124527 16 64 3.2 6.4 0.00 0.05 0.00 79 1008.0
20260505123801 16 68 3.2 6.4 0.00 0.05 0.00 79 1008.1
20260505123301 16 19 3.2 6.4 0.00 0.05 0.00 78 1008.1
20260505122802 16 60 3.2 8.0 0.00 0.05 0.00 79 1008.1
20260505122305 16 281 1.6 8.0 0.00 0.05 0.00 79 1008.2
20260505122027 16 46 3.2 6.4 0.00 0.05 0.00 79 1008.2